[[{"header":{"parameterUnit":"m.s-1","parameterCategory":1,"la1":30.2992,"la2":30.254,"lo1":-89.0895,"lo2":-89.0443,"dy":0.0025,"dx":0.0025,"nx":19,"ny":19,"refTime":"2026-04-04T03:00:00:Z","depth":0,"parameterNumber":2,"parameterNumberName":"U-component_of_WINDS"},"data":[0,0,0,-3.753,-3.753,-3.7525,-3.7525,-3.7541,-3.7541,0,0,0,0,0,0,0,0,0,0,0,-3.7544,-3.7545,-3.753,-3.753,-3.7525,-3.7525,-3.7541,-3.7541,0,0,0,0,0,0,0,0,0,0,0,-3.7544,-3.7544,-3.7545,-3.753,-3.7525,-3.7525,-3.7541,-3.7537,0,0,0,0,0,0,0,0,0,0,-3.7538,-3.7563,-3.7544,-3.7545,-3.753,-3.7525,-3.7525,-3.7536,-3.7537,-3.7553,0,-3.757,0,-3.7556,-3.7544,-3.7544,0,0,0,-3.752,-3.7563,-3.755,-3.7545,-3.753,-3.7525,-3.7525,-3.7536,-3.7537,-3.7554,-3.757,-3.757,-3.7556,-3.7544,-3.7544,-3.7667,-3.7668,0,0,-3.7521,-3.755,-3.7549,-3.7551,-3.7553,-3.7525,-3.7525,-3.7537,-3.7556,-3.757,-3.757,-3.7557,-3.7544,-3.7545,-3.7666,-3.7667,0,0,0,-3.7528,-3.7551,-3.7537,-3.7551,-3.7549,-3.7525,-3.7525,-3.7555,-3.7548,-3.757,-3.7557,-3.7545,-3.7545,-3.7664,-3.7666,-3.7744,0,0,0,-3.7528,-3.7555,-3.7538,-3.7556,-3.7549,-3.7552,-3.7543,-3.7547,-3.7548,-3.7557,-3.7545,-3.7545,-3.7663,-3.7665,-3.7739,-3.7775,0,0,0,-3.754,-3.7556,-3.756,-3.7557,-3.7556,-3.7551,-3.7544,-3.7547,-3.7541,-3.7544,-3.7546,-3.7662,-3.7665,-3.7735,-3.7768,-3.7815,0,0,0,-3.7562,-3.7629,-3.7562,-3.7632,-3.7556,-3.76,-3.7544,-3.7574,-3.7587,-3.7545,-3.7663,-3.7666,-3.7734,-3.7764,-3.7811,-3.7858,-3.7881,0,0,-3.7663,-3.7642,-3.7682,-3.7621,-3.7684,-3.7598,-3.7672,-3.7656,-3.763,-3.7656,-3.7659,-3.7741,-3.7768,-3.7814,-3.8004,-3.8022,0,0,0,-3.7724,-3.7752,-3.7763,-3.7776,-3.7766,-3.776,-3.7729,-3.7724,-3.7745,-3.7649,-3.7771,-3.7786,-3.7812,-3.7833,-3.7849,-3.7869,-3.7678,-3.7677,-3.7677,-3.7907,-3.7871,-3.7934,-3.7898,-3.7912,-3.7881,-3.7889,-3.7876,-3.7835,-3.7865,-3.7871,-3.7991,-3.8017,-3.8028,-3.805,-3.7895,-3.7896,-3.7896,-3.7896,-3.8051,-3.8085,-3.8031,-3.8072,-3.8034,-3.8068,-3.8043,-3.8013,-3.8039,-3.7982,-3.8003,-3.7942,-3.805,-3.8067,-3.7901,-3.7901,-3.79,-3.7899,-3.7899,-3.8165,-3.8175,-3.8168,-3.8185,-3.8203,-3.8165,-3.8193,-3.8158,-3.8125,-3.8146,-3.8149,-3.8148,-3.814,-3.8151,-3.8151,-3.8151,-3.8152,-3.8152,-3.8152,-3.8286,-3.8275,-3.8303,-3.83,-3.8305,-3.8307,-3.8279,-3.8283,-3.8279,-3.8251,-3.825,-3.8206,-3.8068,-3.8033,-3.8159,-3.8157,-3.8157,-3.8156,-3.8156,-3.8441,-3.84,-3.8444,-3.8449,-3.8443,-3.8463,-3.8419,-3.8431,-3.843,-3.8445,-3.8398,-3.8302,-3.8278,-3.8265,-3.8235,-3.8406,-3.8406,-3.8406,-3.8406,-3.8535,-3.8521,-3.8557,-3.8568,-3.8575,-3.854,-3.8592,-3.8572,-3.8545,-3.8542,-3.8513,-3.8472,-3.8461,-3.8443,-3.8427,-3.8398,-3.8607,-3.8607,-3.8607,-3.8628,-3.8613,-3.8662,-3.8636,-3.863,-3.8625,-3.8673,-3.8688,-3.8649,-3.8614,-3.8539,-3.8531,-3.8464,-3.8444,-3.8404,-3.8379,-3.8326,0,0]},{"header":{"parameterUnit":"m.s-1","parameterCategory":1,"la1":30.2992,"la2":30.254,"lo1":-89.0895,"lo2":-89.0443,"dy":0.0025,"dx":0.0025,"nx":19,"ny":19,"refTime":"2026-04-04T03:00:00:Z","depth":0,"parameterNumber":3,"parameterNumberName":"V-component_of_WINDS"},"data":[0,0,0,2.3791,2.3791,2.3816,2.3817,2.384,2.384,0,0,0,0,0,0,0,0,0,0,0,2.3776,2.3776,2.3791,2.3791,2.3816,2.3817,2.384,2.384,0,0,0,0,0,0,0,0,0,0,0,2.3776,2.3776,2.3776,2.3791,2.3816,2.3817,2.384,2.3825,0,0,0,0,0,0,0,0,0,0,2.3802,2.3781,2.3776,2.3776,2.3791,2.3816,2.3817,2.3824,2.3826,2.3825,0,2.3821,0,2.3831,2.3841,2.3841,0,0,0,2.3797,2.378,2.3793,2.3776,2.3792,2.3816,2.3807,2.3825,2.3827,2.3827,2.3821,2.3822,2.3831,2.3841,2.3841,2.3817,2.3817,0,0,2.3795,2.3777,2.3792,2.3794,2.3788,2.3806,2.3807,2.3826,2.3819,2.3821,2.3823,2.3832,2.3841,2.3842,2.3818,2.3817,0,0,0,2.3788,2.3776,2.3789,2.3792,2.3798,2.3806,2.3808,2.3819,2.3824,2.3823,2.3832,2.3842,2.3842,2.3818,2.3817,2.3783,0,0,0,2.3787,2.3772,2.3788,2.3777,2.3797,2.3808,2.38,2.3823,2.3826,2.3832,2.3842,2.3842,2.3818,2.3818,2.3785,2.3769,0,0,0,2.3777,2.3771,2.3772,2.3776,2.3787,2.3808,2.3815,2.3824,2.3831,2.3841,2.3842,2.3819,2.3818,2.3786,2.3772,2.3759,0,0,0,2.3762,2.3739,2.3771,2.375,2.3786,2.3786,2.3815,2.3816,2.3821,2.3842,2.3818,2.3817,2.3787,2.3774,2.3761,2.3745,2.3737,0,0,2.3724,2.3734,2.3724,2.3753,2.3742,2.3784,2.3769,2.379,2.3808,2.3814,2.3813,2.3784,2.3772,2.3759,2.3695,2.3688,0,0,0,2.3706,2.3698,2.3699,2.3703,2.3719,2.3733,2.3759,2.3767,2.3773,2.3807,2.3776,2.377,2.3763,2.3756,2.3751,2.3747,2.3813,2.3814,2.3814,2.3626,2.3651,2.3636,2.3664,2.3667,2.3696,2.3702,2.3719,2.3741,2.3734,2.3735,2.3693,2.3685,2.3681,2.3676,2.3729,2.3729,2.3728,2.3728,2.3574,2.3568,2.36,2.3597,2.3624,2.3622,2.365,2.3666,2.367,2.3693,2.3689,2.3712,2.3673,2.367,2.3726,2.3726,2.3727,2.3727,2.3727,2.3525,2.3527,2.3538,2.3548,2.3554,2.3584,2.3587,2.3611,2.3634,2.3629,2.3635,2.3636,2.364,2.363,2.363,2.363,2.363,2.363,2.363,2.347,2.3484,2.3483,2.35,2.3508,2.3521,2.3551,2.356,2.3576,2.3593,2.3593,2.3618,2.3664,2.3675,2.3627,2.3628,2.3628,2.3628,2.3628,2.3409,2.3427,2.3425,2.3433,2.3457,2.3463,2.3494,2.351,2.3521,2.3522,2.3549,2.3578,2.3591,2.3595,2.3605,2.3542,2.3542,2.3542,2.3542,2.3368,2.3377,2.3382,2.3393,2.3407,2.3436,2.3436,2.3461,2.3489,2.3498,2.3511,2.3526,2.3529,2.354,2.3546,2.3555,2.3481,2.3481,2.3481,2.3333,2.3345,2.3339,2.3367,2.3388,2.3407,2.3408,2.3422,2.3458,2.3479,2.3506,2.3508,2.3533,2.3539,2.356,2.3569,2.3587,0,0]}]]